Swisher, IA

9:16 AM CST on February 09, 2016 (GMT -0600)
The Eastern Iowa Airport

Weather History for KCID - September, 2012

Change the Weather History Date:

Thursday, September 6, 2012

  Actual Average Record
Temperature  
Mean Temperature 68 °F 67 °F  
Max Temperature 81 °F 78 °F 101 °F (1922)
Min Temperature 55 °F 55 °F 40 °F (1950)
Degree Days  
Heating Degree Days 0 2  
Month to date heating degree days 0 10  
Since 1 July heating degree days 14 29  
Cooling Degree Days 3 4  
Month to date cooling degree days 58 25  
Year to date cooling degree days 1032 693  
Growing Degree Days 18 (Base 50)    
Moisture  
Dew Point 53 °F    
Average Humidity 62    
Maximum Humidity 93    
Minimum Humidity 30    
Precipitation  
Precipitation T in 0.12 in 1.57 in (1982)
Month to date precipitation 0.64 0.70  
Year to date precipitation 16.68 26.00  
Sea Level Pressure  
Sea Level Pressure 29.93 in    
Wind  
Wind Speed 6 mph (NNE)    
Max Wind Speed 13 mph    
Max Gust Speed 17 mph    
Visibility 10 miles    
Events      
T = Trace of Precipitation, MM = Missing Value Source: NWS Daily Summary

Daily Weather History Graph

Daily Weather History Graph

Search for Another Location

Airport or City:

Trip Planner

Search our weather history database for the weather conditions in past years. The results will help you decide how hot, cold, wet, or windy it might be!

Date:

Astronomy

Sep. 06, 2012 Rise Set
Actual Time 6:38 AM CDT 7:30 PM CDT
Civil Twilight 6:09 AM CDT 7:59 PM CDT
Nautical Twilight 5:36 AM CDT 8:32 PM CDT
Astronomical Twilight 5:01 AM CDT 9:07 PM CDT
Moon 10:35 PM CDT (9/6) 12:44 PM CDT (9/6)
Length of Visible Light 13h 49m
Length of Day
12h 52m
Waning Gibbous, 67% of the Moon is Illuminated
Sep 6
Waning Gibbous
Sep 8
Last Quarter
Sep 15
New
Sep 22
First Quarter
Sep 29
Full

Hourly Weather History & Observations

Time (CDT) Temp. Dew Point Humidity Pressure Visibility Wind Dir Wind Speed Gust Speed Precip Events Conditions
12:52 AM 63.0 °F 59.0 °F 87% 29.88 in 10.0 mi NW 4.6 mph - N/A   Clear
1:52 AM 62.1 °F 57.9 °F 86% 29.90 in 10.0 mi NNW 5.8 mph - N/A   Clear
2:52 AM 60.1 °F 57.0 °F 90% 29.91 in 10.0 mi NNW 6.9 mph - N/A   Clear
3:52 AM 59.0 °F 55.0 °F 87% 29.93 in 10.0 mi NW 6.9 mph - N/A   Clear
4:52 AM 57.9 °F 54.0 °F 87% 29.94 in 10.0 mi NNW 6.9 mph - N/A   Clear
5:52 AM 55.9 °F 53.1 °F 90% 29.95 in 10.0 mi NNW 5.8 mph - N/A   Clear
6:52 AM 55.0 °F 52.0 °F 89% 29.96 in 10.0 mi NNW 6.9 mph - N/A   Clear
7:52 AM 59.0 °F 54.0 °F 83% 29.98 in 10.0 mi NNW 5.8 mph - N/A   Clear
8:52 AM 64.0 °F 55.0 °F 73% 29.97 in 10.0 mi NNW 5.8 mph - N/A   Clear
9:52 AM 70.0 °F 51.1 °F 51% 29.98 in 10.0 mi North 5.8 mph - N/A   Clear
10:52 AM 75.0 °F 48.0 °F 38% 29.99 in 10.0 mi North 5.8 mph - N/A   Clear
11:52 AM 75.0 °F 45.0 °F 34% 29.99 in 10.0 mi Calm Calm - N/A   Clear
12:52 PM 75.9 °F 46.9 °F 36% 29.97 in 10.0 mi Calm Calm - N/A   Clear
1:52 PM 78.1 °F 45.0 °F 31% 29.94 in 10.0 mi SSE 3.5 mph - N/A   Clear
2:52 PM 79.0 °F 50.0 °F 36% 29.93 in 10.0 mi South 3.5 mph - N/A   Clear
3:52 PM 81.0 °F 48.0 °F 31% 29.91 in 10.0 mi Calm Calm - N/A   Clear
4:52 PM 79.0 °F 51.1 °F 38% 29.89 in 10.0 mi SE 5.8 mph - N/A   Clear
5:52 PM 77.0 °F 52.0 °F 42% 29.89 in 10.0 mi SSE 4.6 mph - N/A   Clear
6:52 PM 72.0 °F 55.9 °F 57% 29.88 in 10.0 mi ESE 5.8 mph - N/A   Clear
7:52 PM 66.9 °F 55.9 °F 68% 29.87 in 10.0 mi ESE 9.2 mph - N/A   Clear
8:52 PM 64.9 °F 54.0 °F 68% 29.89 in 10.0 mi ENE 8.1 mph - N/A   Clear
9:52 PM 64.9 °F 54.0 °F 68% 29.89 in 10.0 mi East 6.9 mph - N/A   Clear
10:52 PM 63.0 °F 55.0 °F 75% 29.88 in 10.0 mi East 9.2 mph - N/A   Clear
11:52 PM 64.9 °F 55.0 °F 70% 29.88 in 10.0 mi East 5.8 mph - N/A   Clear